Flag for Canada Weather past 2 weeks in Inuvik, Northwest Territories, Canada

Now
43 °F

Drizzle. Fog.


Feels Like: 39 °F
Forecast: 40 / 44 °F
Wind: 6 mph from North

Location: Inuvik

Current Time: Jul 28, 2014 at 9:56:21 AM

Latest Report: Jul 28, 2014 at 9:00 AM


Visibility: 4 mi

Pressure: 30.13 "Hg

Humidity: 93%

Dew point: 41 °F

Location of InuvikLocation

Historic Weather in Inuvik — Graph

°F

Inuvik temperature yesterday

Maximum temperature yesterday: 50 °F (at 5:00 PM)
Minimum temperature yesterday: 37 °F (at 2:00 AM)
Average temperature yesterday: 44 °F

Past Weeks' High & Low Weather Summary

 TemperatureHumidityPressure
High82 °F (Jul 13, 6:00 PM)100% (Jul 16, 3:00 AM)30.24 "Hg (Jul 16, 3:00 AM)
Low37 °F (Jul 27, 2:00 AM)28% (Jul 13, 6:00 PM)29.49 "Hg (Jul 19, 11:00 PM)
Average56 °F74%29.81 "Hg
* Reported Jul 13 8:00 AM — Jul 28 8:00 AM, Inuvik, Weather by CustomWeather, © 2014

Note: Actual official high and low records may vary slightly from our data, if they occured in-between our weather recording intervals... More about our weather records

Advertising

Inuvik weather history for previous 24 hours

 ConditionsComfort  
Time TempWeatherWind HumidityBarometerVisibility
8:00 AM
Jul 28
43 °FDrizzle. Fog.7 mph93%30.14 "Hg2 mi
7:52 AM43 °FDrizzle. Fog.7 mph93%30.14 "Hg4 mi
7:00 AM43 °FDrizzle. Low clouds.7 mph93%30.14 "Hg10 mi
6:00 AM43 °FDrizzle. Low clouds.6 mph93%30.14 "Hg10 mi
5:00 AM43 °FDrizzle. Fog.6 mph93%30.14 "Hg6 mi
4:00 AM43 °FDrizzle. Fog.6 mph93%30.14 "Hg5 mi
3:00 AM43 °FLight rain. Mostly cloudy.7 mph100%30.14 "Hg8 mi
2:00 AM43 °FLight rain. Mostly cloudy.7 mph100%30.15 "Hg8 mi
1:00 AM45 °FLight rain. Fog.7 mph93%30.17 "Hg5 mi
12:00 AM45 °FLight rain. Fog.7 mph93%30.16 "Hg5 mi
11:00 PM
Jul 27
45 °FLight rain. Fog.8 mph93%30.16 "Hg4 mi
10:00 PM45 °FLight rain. Fog.8 mph93%30.18 "Hg6 mi
9:00 PM46 °FLight rain. Fog.8 mph93%30.18 "Hg6 mi
8:00 PM46 °FLight rain. Overcast.8 mph87%30.17 "Hg15 mi
7:00 PM48 °FLight rain. Overcast.9 mph82%30.18 "Hg15 mi
6:00 PM50 °FOvercast.8 mph71%30.19 "Hg15 mi
5:00 PM50 °FMore clouds than sun.8 mph67%30.20 "Hg15 mi
4:00 PM48 °FMore clouds than sun.7 mph71%30.21 "Hg15 mi
3:00 PM48 °FOvercast.8 mph66%30.21 "Hg15 mi
2:00 PM46 °FPartly sunny.7 mph76%30.22 "Hg15 mi
1:00 PM45 °FPartly sunny.6 mph76%30.23 "Hg15 mi
12:00 PM45 °FPartly sunny.8 mph76%30.24 "Hg15 mi
11:00 AM43 °FOvercast.6 mph81%30.24 "Hg15 mi
10:00 AM43 °FPartly sunny.5 mph81%30.24 "Hg15 mi
9:00 AM41 °FPartly sunny.5 mph81%30.24 "Hg15 mi
Weather by CustomWeather, © 2014

See weather overviewHow to use our weather pages